Location: Bailleul
(50.3375°N, 2.8513°E)
Time: 09:40:50
(UTC+00:00)

ERS-1 Rocket - Pass Details

Date: 16 June 2021
Orbit: 752 x 758 km, 98.4° (Epoch: 26 July)

Event Time Altitude Azimuth Distance (km) Brightness Sun altitude
Exits shadow 21:24:36 10° 169° (S) 2,286 4.9 -9.6°
Reaches altitude 10° 21:24:36 10° 169° (S) 2,283 4.9 -9.6°
Maximum altitude 21:29:38 77° 256° (WSW) 783 3.1 -10.1°
Drops below altitude 10° 21:34:43 10° 343° (NNW) 2,301 6.9 -10.5°
Sets 21:37:02 0° 345° (NNW) 3,231 7.9 -10.7°
